[[{"header":{"parameterUnit":"m.s-1","parameterCategory":1,"la1":30.2991,"la2":30.254,"lo1":-89.0895,"lo2":-89.0444,"dy":0.0017,"dx":0.0017,"nx":28,"ny":28,"refTime":"2024-05-14T21:00:00:Z","depth":0,"parameterNumber":2,"parameterNumberName":"U-component_of_WINDS"},"data":[0,0,0,0,0,0,0,0,0,0,0,0,0,0,0,0,0,0,0,0,0,0,0,0,0,0,0,0,0,0,0,0,0,0,0,0,0,0,0,0,0,0,0,0,0,0,0,0,0,0,0,0,0,0,0,0,0,0,2.5998,2.5998,0,2.6047,2.6047,2.6048,2.5941,2.5937,2.5934,2.5931,2.599,2.5995,2.5999,0,0,0,0,0,0,0,0,0,0,0,0,0,2.582,2.5824,2.5998,2.5998,2.5999,2.6047,2.6047,2.6048,2.5941,2.5937,2.5933,2.5929,2.5988,2.5994,2.6,0,0,0,0,0,0,0,0,0,0,0,0,0,2.5886,2.5825,2.5998,2.5951,2.5948,2.6047,2.6047,2.6048,2.5942,2.5937,2.5932,2.5927,2.5986,2.5993,2.6001,2.615,0,0,2.6023,2.6026,0,0,0,0,0,0,0,0,2.5883,2.5893,2.5958,2.5955,2.5951,2.5982,2.6006,2.6083,2.5944,2.5945,2.5931,2.5925,2.5992,2.5999,2.602,2.6152,2.6155,2.6023,2.6028,2.6031,2.6033,0,0,0,0,0,0,0,2.5878,2.589,2.6017,2.5959,2.5955,2.5931,2.5934,2.602,2.5998,2.5944,2.5937,2.5943,2.5989,2.6013,2.602,2.6156,2.6023,2.603,2.6034,2.6037,2.6415,2.642,0,0,0,0,0,0,2.5878,2.5887,2.6016,2.6019,2.5903,2.5938,2.5942,2.5978,2.5996,2.5994,2.5948,2.5938,2.6003,2.6012,2.6022,2.6199,2.6031,2.6038,2.6042,2.6409,2.6416,2.6422,0,0,0,0,0,0,2.5875,2.5891,2.6014,2.5951,2.5965,2.5947,2.5987,2.5981,2.6004,2.5999,2.5995,2.5975,2.5999,2.6012,2.6118,2.6199,2.6041,2.6047,2.6402,2.6411,2.6419,2.6553,0,0,0,0,0,0,2.587,2.589,2.5945,2.5953,2.5968,2.6108,2.5992,2.5986,2.6016,2.6004,2.6024,2.6022,2.5996,2.6108,2.6125,2.6206,2.6053,2.6395,2.6406,2.6416,2.6542,2.6566,2.6586,0,0,0,0,0,2.5864,2.5983,2.5948,2.5964,2.6036,2.6112,2.6122,2.6087,2.6023,2.6079,2.6075,2.6021,2.6187,2.612,2.6139,2.6223,2.639,2.6403,2.6415,2.6532,2.6561,2.6585,0,0,0,0,0,0,2.5988,2.5983,2.5945,2.6068,2.6091,2.6094,2.6164,2.6119,2.6163,2.615,2.6107,2.6113,2.6229,2.6236,2.6161,2.6369,2.6278,2.6295,2.636,2.6388,2.6409,2.6407,2.6059,0,0,0,0,0,2.6029,2.6089,2.6082,2.6192,2.6205,2.6183,2.6215,2.6186,2.6209,2.6219,2.6223,2.625,2.6308,2.6348,2.6401,2.6541,2.6545,2.6608,2.663,2.6649,2.6665,2.6742,2.6771,2.6464,2.6464,2.6464,0,0,2.6116,2.612,2.6161,2.6217,2.6231,2.6297,2.6192,2.6266,2.6315,2.6231,2.6332,2.6336,2.6363,2.6488,2.6543,2.6498,2.675,2.6665,2.6679,2.6686,2.6758,2.6787,2.6813,2.6473,2.6471,2.647,0,0,2.6308,2.6316,2.6409,2.6425,2.6447,2.6431,2.6453,2.6463,2.6461,2.656,2.6499,2.6558,2.6659,2.6681,2.6706,2.6905,2.6858,2.6924,2.7041,2.7116,2.714,2.7161,2.7235,2.7261,2.6939,2.694,2.694,0,2.6415,2.6508,2.6464,2.6541,2.6569,2.6492,2.6588,2.6606,2.6646,2.6668,2.6615,2.6739,2.6753,2.6882,2.6931,2.6952,2.6979,2.6923,2.7139,2.716,2.7179,2.7249,2.7277,2.6948,2.6947,2.6946,2.6945,0,2.6639,2.6705,2.6778,2.6815,2.685,2.6936,2.6908,2.6949,2.6916,2.6907,2.701,2.7023,2.7077,2.7105,2.7076,2.7231,2.7203,2.7145,2.7054,2.7217,2.7283,2.7309,2.6959,2.6956,2.6954,2.6952,0,0,2.6914,2.6922,2.6951,2.6967,2.6984,2.7036,2.7119,2.717,2.7207,2.7237,2.7308,2.7394,2.7341,2.7369,2.7341,2.7406,2.7566,2.7341,2.7341,2.7385,2.7742,2.7787,2.7818,2.7533,2.7538,2.7542,2.774,0,2.7105,2.7246,2.7208,2.735,2.7412,2.7339,2.7412,2.7433,2.7426,2.7479,2.7472,2.7535,2.7458,2.7475,2.7536,2.7534,2.7638,2.7518,2.7603,2.7607,2.7601,2.7852,2.79,2.8086,2.7765,2.7769,2.7772,0,2.7349,2.7385,2.7532,2.7539,2.7564,2.763,2.7673,2.7724,2.7746,2.7737,2.7767,2.7726,2.7811,2.7716,2.7835,2.7755,2.7787,2.7791,2.7797,2.7807,2.7702,2.7871,2.8144,2.8174,2.7811,2.7808,2.7805,0,2.7538,2.7623,2.7722,2.7738,2.7748,2.7797,2.7804,2.782,2.7853,2.7892,2.7913,2.7962,2.799,2.803,2.8004,2.7937,2.8129,2.8031,2.8126,2.8127,2.8173,2.8171,2.8459,2.8189,2.8188,2.8188,2.8187,0,2.7758,2.7852,2.7807,2.7869,2.7972,2.7928,2.8032,2.8031,2.8047,2.8109,2.8049,2.8109,2.8069,2.8128,2.8108,2.8211,2.8223,2.822,2.8215,2.8227,2.8228,2.825,2.8238,2.8195,2.8193,2.8192,2.8191,0,2.7988,2.7961,2.8065,2.8065,2.8067,2.8144,2.8145,2.8204,2.8191,2.8271,2.8287,2.8269,2.8334,2.831,2.8381,2.8367,2.8499,2.8475,2.8491,2.8486,2.8584,2.8576,2.8898,2.8939,2.864,2.8643,2.8645,0,2.8132,2.8202,2.8208,2.8244,2.8254,2.8313,2.8345,2.8305,2.8341,2.8371,2.8427,2.8486,2.8531,2.8639,2.8634,2.8688,2.8666,2.8775,2.8675,2.8686,2.8672,2.8669,2.8677,2.8797,2.88,2.8803,2.8805,0,2.8391,2.8373,2.842,2.8464,2.8503,2.8536,2.8563,2.8597,2.8558,2.8602,2.8666,2.8701,2.8771,2.8832,2.8879,2.889,2.8844,2.8836,2.8862,2.8878,2.8885,2.8885,2.855,2.883,2.8828,2.8826,2.8825,2.8824,2.8584,2.8643,2.8657,2.8712,2.8727,2.8754,2.8809,2.8802,2.8853,2.8905,2.8878,2.8954,2.8975,2.9034,2.9051,2.9111,2.9069,2.9105,2.9115,2.9125,2.9139,2.8872,2.9119,2.9118,2.9118,2.9117,2.9116,0,2.8842,2.8846,2.8897,2.8936,2.898,2.8927,2.8955,2.8996,2.9062,2.9083,2.9128,2.9203,2.926,2.9259,2.9313,2.9362,2.9342,2.9378,2.9376,2.938,2.9172,2.9146,2.9393,2.9393,2.9393,2.9393,2.9393,2.9393,2.8982,2.9079,2.9064,2.9169,2.9174,2.9244,2.9265,2.9291,2.9308,2.9392,2.9439,2.9436,2.945,2.9504,2.9556,2.9554,2.9579,2.9624,2.9615,2.9421,2.9394,2.9368,2.9343,2.9628,2.9629,2.9817,2.9819,2.982]},{"header":{"parameterUnit":"m.s-1","parameterCategory":1,"la1":30.2991,"la2":30.254,"lo1":-89.0895,"lo2":-89.0444,"dy":0.0017,"dx":0.0017,"nx":28,"ny":28,"refTime":"2024-05-14T21:00:00:Z","depth":0,"parameterNumber":3,"parameterNumberName":"V-component_of_WINDS"},"data":[0,0,0,0,0,0,0,0,0,0,0,0,0,0,0,0,0,0,0,0,0,0,0,0,0,0,0,0,0,0,0,0,0,0,0,0,0,0,0,0,0,0,0,0,0,0,0,0,0,0,0,0,0,0,0,0,0,0,0.0207,0.0207,0,0.0194,0.0193,0.0193,0.0177,0.0176,0.0176,0.0176,0.0164,0.0164,0.0164,0,0,0,0,0,0,0,0,0,0,0,0,0,0.0219,0.0219,0.0207,0.0207,0.0207,0.0194,0.0193,0.0193,0.0177,0.0176,0.0176,0.0176,0.0164,0.0164,0.0164,0,0,0,0,0,0,0,0,0,0,0,0,0,0.0211,0.0219,0.0207,0.0197,0.0196,0.0194,0.0193,0.0193,0.0177,0.0176,0.0176,0.0176,0.0164,0.0164,0.0164,0.0171,0,0,0.0163,0.0163,0,0,0,0,0,0,0,0,0.0211,0.021,0.0198,0.0197,0.0196,0.0186,0.0193,0.0186,0.0177,0.0184,0.0176,0.0175,0.0172,0.0171,0.0169,0.0171,0.017,0.0163,0.0163,0.0163,0.0163,0,0,0,0,0,0,0,0.0212,0.0211,0.0202,0.0198,0.0197,0.0193,0.0192,0.0192,0.018,0.0183,0.0182,0.0181,0.0171,0.017,0.0169,0.017,0.0163,0.0163,0.0163,0.0163,0.0177,0.0177,0,0,0,0,0,0,0.0214,0.0211,0.0202,0.0201,0.0203,0.0193,0.0191,0.019,0.018,0.0178,0.0181,0.018,0.017,0.0169,0.0169,0.0177,0.0163,0.0163,0.0163,0.0176,0.0177,0.0177,0,0,0,0,0,0,0.0214,0.0213,0.0203,0.0206,0.0204,0.0193,0.0192,0.019,0.0188,0.0178,0.0177,0.0181,0.017,0.0169,0.0171,0.0176,0.0163,0.0163,0.0176,0.0176,0.0177,0.0194,0,0,0,0,0,0,0.0215,0.0213,0.0216,0.0206,0.0204,0.0205,0.0192,0.019,0.0188,0.0186,0.0178,0.0177,0.0169,0.0171,0.017,0.0176,0.0163,0.0175,0.0176,0.0177,0.0193,0.0195,0.0197,0,0,0,0,0,0.0215,0.0221,0.0216,0.0215,0.0207,0.0205,0.0204,0.0195,0.0188,0.0191,0.0185,0.0177,0.0175,0.0171,0.0171,0.0176,0.0175,0.0176,0.0177,0.0192,0.0194,0.0197,0,0,0,0,0,0,0.0233,0.022,0.0214,0.0217,0.0212,0.0202,0.0205,0.0198,0.0195,0.0194,0.0183,0.0181,0.0184,0.018,0.0176,0.0183,0.0174,0.0175,0.0186,0.0188,0.019,0.0192,0.0163,0,0,0,0,0,0.0237,0.0236,0.0225,0.0229,0.0227,0.0216,0.0215,0.0208,0.0203,0.0201,0.0195,0.019,0.0189,0.0188,0.0186,0.0192,0.019,0.0195,0.0197,0.0199,0.02,0.0203,0.0206,0.018,0.018,0.018,0,0,0.0246,0.0239,0.0239,0.0232,0.0228,0.0227,0.0215,0.0215,0.0215,0.0201,0.0202,0.0198,0.0192,0.0196,0.0197,0.0192,0.0207,0.02,0.0202,0.0202,0.0204,0.0207,0.0209,0.0181,0.0181,0.0181,0,0,0.0262,0.0256,0.0259,0.0255,0.0247,0.024,0.0241,0.0232,0.0228,0.0229,0.0219,0.0218,0.0216,0.0212,0.021,0.0224,0.0217,0.0224,0.0235,0.0238,0.024,0.0242,0.0247,0.025,0.0225,0.0225,0.0225,0,0.0275,0.0273,0.0262,0.0262,0.026,0.0247,0.025,0.0246,0.0239,0.0238,0.0232,0.0229,0.0224,0.0227,0.023,0.0229,0.0229,0.0225,0.024,0.0242,0.0244,0.0249,0.0251,0.0226,0.0226,0.0226,0.0225,0,0.0289,0.0288,0.0291,0.0284,0.0282,0.0283,0.0273,0.0272,0.0265,0.0259,0.026,0.0253,0.025,0.025,0.0244,0.0252,0.0249,0.0242,0.0233,0.0247,0.0252,0.0254,0.0227,0.0227,0.0226,0.0226,0,0,0.0318,0.0303,0.0304,0.0301,0.0291,0.0291,0.0292,0.0288,0.0288,0.0283,0.0284,0.0282,0.0275,0.0273,0.0266,0.0268,0.028,0.0261,0.026,0.0265,0.029,0.0296,0.0299,0.0275,0.0275,0.0276,0.0291,0,0.0333,0.0334,0.0323,0.0327,0.0326,0.0313,0.0314,0.0309,0.0303,0.0302,0.0295,0.0294,0.0285,0.0283,0.0285,0.0278,0.0285,0.0277,0.0277,0.0277,0.028,0.0301,0.0308,0.0322,0.0293,0.0293,0.0293,0,0.0351,0.0346,0.035,0.034,0.034,0.0341,0.0336,0.0335,0.0328,0.0324,0.0321,0.0312,0.0313,0.0304,0.0305,0.03,0.0299,0.0296,0.0296,0.0297,0.0287,0.0303,0.0327,0.0329,0.0296,0.0296,0.0295,0,0.0372,0.0367,0.0369,0.0366,0.0354,0.0355,0.0351,0.0344,0.0342,0.0338,0.0337,0.0333,0.0331,0.0329,0.032,0.0314,0.0323,0.0312,0.032,0.032,0.0323,0.0323,0.0348,0.0321,0.0321,0.0321,0.0321,0,0.0391,0.0394,0.0378,0.0379,0.0382,0.037,0.0373,0.0367,0.0361,0.0361,0.035,0.035,0.0338,0.0337,0.033,0.0332,0.0331,0.0328,0.0327,0.033,0.033,0.033,0.0329,0.0321,0.0321,0.0321,0.0321,0,0.0416,0.0405,0.0406,0.0395,0.0392,0.0395,0.0385,0.0386,0.0378,0.0379,0.0378,0.0367,0.0365,0.0355,0.0352,0.0347,0.0353,0.0348,0.0355,0.0354,0.0362,0.0362,0.0388,0.0391,0.0361,0.0362,0.0362,0,0.0429,0.0431,0.042,0.0418,0.0414,0.0412,0.041,0.0398,0.0396,0.0389,0.0391,0.0388,0.0385,0.0383,0.0375,0.0372,0.0369,0.0378,0.0368,0.0372,0.037,0.037,0.0371,0.0381,0.0381,0.0381,0.0381,0,0.0454,0.0449,0.0446,0.0441,0.0438,0.0434,0.0429,0.0429,0.0415,0.0414,0.0412,0.041,0.0405,0.0403,0.0399,0.0394,0.0386,0.0384,0.0386,0.039,0.0394,0.0393,0.0362,0.0384,0.0384,0.0384,0.0383,0.0383,0.0475,0.0476,0.0467,0.0464,0.0459,0.0455,0.0455,0.0447,0.0445,0.044,0.0433,0.0432,0.0425,0.0418,0.0414,0.0414,0.0409,0.0411,0.0412,0.0413,0.0415,0.0393,0.0413,0.0413,0.0413,0.0413,0.0413,0,0.05,0.0493,0.0491,0.0484,0.0481,0.0472,0.0466,0.0465,0.0464,0.0458,0.0455,0.0453,0.045,0.0442,0.0438,0.044,0.0436,0.0439,0.044,0.0439,0.0419,0.0418,0.0443,0.0442,0.0442,0.0442,0.0442,0.0442,0.0513,0.0514,0.0507,0.0506,0.05,0.0498,0.0495,0.0491,0.0487,0.0484,0.0482,0.0476,0.0469,0.0465,0.0462,0.046,0.046,0.0465,0.0461,0.0443,0.044,0.0438,0.0437,0.0465,0.0465,0.0481,0.0481,0.0482]}]]